{"data":{"norad_id":68818,"intl_designator":"2026-089S","name":"STARLINK-37450","alt_names":[],"object_type":"PAYLOAD","status":"ACTIVE","operator":null,"country":"US","launch_date":"2026-04-23","launch_site_code":"AFWTR","launch_vehicle":null,"mission":null,"orbit_class":"UNKNOWN","rcs_meters":null,"size_class":null,"mass_kg":null,"dimensions":null,"purposes":["comms"],"wikipedia_slug":null,"has_3d_model":false,"image_url":null,"decayed_at":null,"tle_current":{"epoch":"2026-09-19T23:59:08.261952Z","epoch_age_seconds":83353,"freshness":"FRESH","line1":"1 68818U 26089S   26262.99940118  .00014300  00000+0  44432-3 0  9992","line2":"2 68818  97.2863 108.7888 0001959  85.1918 274.9548 15.33452771 23185","mean_motion":15.33452771,"eccentricity":0.0001959,"inclination_deg":97.2863,"raan_deg":108.7888,"arg_perigee_deg":85.1918,"mean_anomaly_deg":274.9548,"bstar":0.00044432,"rev_number":2318,"period_min":93.905728773175,"perigee_km":464.17938113035,"apogee_km":466.86072596393,"semimajor_km":6843.6570535471,"source":"CELESTRAK","updated_at":"2026-09-20T09:00:44.010394Z"}}}